TimeCDT,TemperatureF,Dew PointF,Humidity,Sea Level PressureIn,VisibilityMPH,Wind Direction,Wind SpeedMPH,Gust SpeedMPH,PrecipitationIn,Events,Conditions,WindDirDegrees,DateUTC
12:53 AM,46.9,35.1,63,29.89,10.0,NW,8.1,-,N/A,,Clear,320,2012-10-15 05:53:00
1:53 AM,45.0,34.0,65,29.91,10.0,NW,6.9,-,N/A,,Clear,320,2012-10-15 06:53:00
2:53 AM,44.1,34.0,68,29.91,10.0,NW,8.1,-,N/A,,Clear,310,2012-10-15 07:53:00
3:53 AM,41.0,33.1,73,29.91,10.0,WNW,6.9,-,N/A,,Clear,290,2012-10-15 08:53:00
4:53 AM,39.0,32.0,76,29.93,10.0,WNW,5.8,-,N/A,,Clear,290,2012-10-15 09:53:00
5:53 AM,41.0,33.1,73,29.94,10.0,Calm,Calm,-,N/A,,Clear,0,2012-10-15 10:53:00
6:53 AM,39.0,32.0,76,29.94,10.0,Calm,Calm,-,N/A,,Partly Cloudy,0,2012-10-15 11:53:00
7:53 AM,39.0,33.1,79,29.96,10.0,SSW,3.5,-,N/A,,Partly Cloudy,210,2012-10-15 12:53:00
8:53 AM,43.0,35.1,74,29.97,10.0,West,3.5,-,N/A,,Partly Cloudy,280,2012-10-15 13:53:00
9:53 AM,46.0,35.1,66,29.97,10.0,Calm,Calm,-,N/A,,Partly Cloudy,0,2012-10-15 14:53:00
10:53 AM,50.0,35.1,57,29.97,10.0,Calm,Calm,-,N/A,,Partly Cloudy,0,2012-10-15 15:53:00
11:53 AM,55.0,34.0,45,29.97,10.0,West,3.5,-,N/A,,Scattered Clouds,260,2012-10-15 16:53:00
12:53 PM,55.0,34.0,45,29.95,10.0,Variable,3.5,-,N/A,,Mostly Cloudy,0,2012-10-15 17:53:00
1:53 PM,59.0,34.0,39,29.92,10.0,West,6.9,-,N/A,,Mostly Cloudy,260,2012-10-15 18:53:00
2:53 PM,59.0,34.0,39,29.89,10.0,Variable,3.5,-,N/A,,Mostly Cloudy,0,2012-10-15 19:53:00
3:53 PM,60.1,34.0,38,29.87,10.0,SSE,4.6,-,N/A,,Mostly Cloudy,150,2012-10-15 20:53:00
4:53 PM,60.1,35.1,39,29.86,10.0,SSE,5.8,-,N/A,,Mostly Cloudy,160,2012-10-15 21:53:00
5:53 PM,60.1,35.1,39,29.85,10.0,SE,5.8,-,N/A,,Overcast,140,2012-10-15 22:53:00
6:53 PM,59.0,37.0,44,29.84,10.0,SE,6.9,-,0.00,Rain,Light Rain,140,2012-10-15 23:53:00
7:53 PM,57.9,35.1,42,29.83,10.0,SE,6.9,-,0.00,,Overcast,130,2012-10-16 00:53:00
8:53 PM,57.9,35.1,42,29.81,10.0,SSE,10.4,-,N/A,,Overcast,150,2012-10-16 01:53:00
9:53 PM,57.0,37.0,47,29.81,10.0,SSE,11.5,-,N/A,,Overcast,150,2012-10-16 02:53:00
10:53 PM,57.0,39.0,51,29.78,10.0,SE,6.9,-,N/A,,Overcast,140,2012-10-16 03:53:00
11:53 PM,55.9,39.0,53,29.75,10.0,SSE,9.2,-,N/A,,Mostly Cloudy,150,2012-10-16 04:53:00